Pellston, MI

4:06 PM EDT on May 23, 2017 (GMT -0400)
Pellston Regional Airport Of Emmet County

Weather History for KPLN - January, 2014

Change the Weather History Date:

Tuesday, January 28, 2014

  Actual Average Record
Temperature  
Mean Temperature 3 °F -  
Max Temperature 8 °F 25 °F 48 °F (2008)
Min Temperature -2 °F 7 °F -28 °F (1986)
Degree Days  
Heating Degree Days 62    
Moisture  
Dew Point -2 °F    
Average Humidity 75    
Maximum Humidity 84    
Minimum Humidity 66    
Precipitation  
Precipitation 0.01 in - - ()
Sea Level Pressure  
Sea Level Pressure 30.03 in    
Wind  
Wind Speed 12 mph (West)    
Max Wind Speed 21 mph    
Max Gust Speed 31 mph    
Visibility 2 miles    
Events Fog , Snow    
Averages and records for this station are not official NWS values.
T = Trace of Precipitation, MM = Missing Value Source: NWS Daily Summary

Daily Weather History Graph

Daily Weather History Graph

Search for Another Location

Airport or City:

Trip Planner

Search our weather history database for the weather conditions in past years. The results will help you decide how hot, cold, wet, or windy it might be!

Date:

Astronomy

Jan. 28, 2014 Rise Set
Actual Time 8:04 AM EST 5:39 PM EST
Civil Twilight 7:32 AM EST 6:11 PM EST
Nautical Twilight 6:57 AM EST 6:47 PM EST
Astronomical Twilight 6:22 AM EST 7:22 PM EST
Moon 5:47 AM EST (1/28) 3:27 PM EST (1/28)
Length of Visible Light 10h 39m
Length of Day
9h 35m
Waning Crescent, 7% of the Moon is Illuminated
Jan 28
Waning Crescent
Jan 30
New
Feb 6
First Quarter
Feb 14
Full
Feb 22
Last Quarter

Hourly Weather History & Observations

Time (EST) Temp. Windchill Dew Point Humidity Pressure Visibility Wind Dir Wind Speed Gust Speed Precip Events Conditions
12:54 AM 1.0 °F -14.9 °F -5.1 °F 75% 30.15 in 6.0 mi West 10.4 mph - 0.00 in   Haze
1:23 AM 1.0 °F -14.0 °F -5.1 °F 75% 30.09 in 2.0 mi West 9.2 mph - 0.00 in Snow Light Snow
1:32 AM 1.0 °F -15.8 °F -4.0 °F 79% 30.09 in 1.5 mi West 11.5 mph - 0.00 in Snow Light Snow
1:41 AM 1.9 °F -16.2 °F -4.0 °F 76% 30.09 in 1.2 mi WNW 13.8 mph - 0.00 in Snow Light Snow
1:54 AM 1.9 °F -18.7 °F -4.0 °F 76% 30.15 in 1.0 mi WNW 18.4 mph 23.0 mph 0.00 in Snow Light Snow
2:45 AM -0.0 °F -20.1 °F -5.1 °F 79% 30.08 in 1.8 mi WNW 16.1 mph 23.0 mph 0.00 in Snow Light Snow
2:54 AM -0.0 °F -18.7 °F -5.1 °F 79% 30.15 in 1.8 mi WNW 13.8 mph 23.0 mph 0.00 in Snow Light Snow
3:02 AM -0.0 °F -18.0 °F -5.1 °F 79% 30.08 in 2.0 mi WNW 12.7 mph - 0.00 in Snow Light Snow
3:45 AM -0.0 °F -16.3 °F -6.0 °F 76% 30.08 in 1.8 mi WNW 10.4 mph - 0.00 in Snow Light Snow
3:54 AM -0.0 °F -18.0 °F -6.0 °F 76% 30.15 in 1.8 mi WNW 12.7 mph - 0.00 in Snow Light Snow
4:18 AM -0.0 °F -18.7 °F -6.0 °F 76% 30.08 in 2.0 mi West 13.8 mph - 0.00 in Snow Light Snow
4:50 AM -0.4 °F -16.7 °F -5.8 °F 78% 30.08 in 1.8 mi WNW 10.4 mph - 0.00 in Snow Light Snow
4:54 AM -0.0 °F -17.1 °F -6.0 °F 76% 30.14 in 1.8 mi WNW 11.5 mph - 0.00 in Snow Light Snow
5:54 AM -0.9 °F -18.3 °F -6.0 °F 79% 30.14 in 1.8 mi WNW 11.5 mph - 0.00 in Snow Light Snow
6:05 AM -0.9 °F -17.4 °F -6.0 °F 79% 30.08 in 2.0 mi WNW 10.4 mph - 0.00 in Snow Light Snow
6:17 AM -0.9 °F -16.4 °F -7.1 °F 75% 30.08 in 3.0 mi West 9.2 mph - 0.00 in Snow Light Snow
6:54 AM -2.0 °F -15.4 °F -8.0 °F 76% 30.14 in 6.0 mi West 6.9 mph - 0.00 in   Haze
7:33 AM -2.0 °F -15.4 °F -7.1 °F 79% 30.07 in 2.5 mi West 6.9 mph - 0.00 in Snow Light Snow
7:54 AM -2.0 °F -15.4 °F -7.1 °F 79% 30.14 in 2.0 mi WNW 6.9 mph - 0.00 in Snow Light Snow
8:08 AM -0.9 °F -14.1 °F -7.1 °F 75% 30.08 in 1.5 mi West 6.9 mph - 0.00 in Snow Light Snow
8:54 AM -0.0 °F -9.9 °F -5.1 °F 79% 30.14 in 1.0 mi West 4.6 mph - 0.00 in Snow Light Snow
8:56 AM -0.0 °F -9.9 °F -5.1 °F 79% 30.08 in 0.8 mi West 4.6 mph - 0.00 in Snow Light Snow
9:35 AM 1.9 °F -7.6 °F -4.0 °F 76% 30.08 in 1.8 mi SW 4.6 mph - 0.00 in Snow Light Snow
9:46 AM 3.0 °F -13.3 °F -2.9 °F 76% 30.08 in 0.8 mi WSW 11.5 mph 16.1 mph 0.00 in Snow Light Snow
9:51 AM 3.2 °F -12.2 °F -4.0 °F 72% 30.08 in 1.2 mi WSW 10.4 mph - 0.00 in Snow Light Snow
9:54 AM 3.0 °F -13.3 °F -4.0 °F 73% 30.14 in 1.2 mi West 11.5 mph - 0.00 in Snow Light Snow
10:00 AM 3.0 °F -12.5 °F -4.0 °F 73% 30.08 in 3.0 mi West 10.4 mph - 0.00 in Snow Light Snow
10:07 AM 3.0 °F -12.5 °F -5.1 °F 69% 30.08 in 7.0 mi West 10.4 mph - 0.00 in   Overcast
10:41 AM 3.9 °F -10.4 °F -4.0 °F 70% 30.08 in 2.0 mi West 9.2 mph 23.0 mph 0.00 in Snow Light Snow
10:49 AM 3.2 °F -13.9 °F -4.0 °F 72% 30.08 in 2.5 mi West 12.7 mph 19.6 mph 0.00 in Snow Light Snow
10:54 AM 3.9 °F -13.0 °F -4.0 °F 70% 30.14 in 1.8 mi West 12.7 mph - 0.00 in Snow Light Snow
11:00 AM 3.9 °F -10.4 °F -2.9 °F 73% 30.08 in 3.0 mi WSW 9.2 mph - 0.00 in Snow Light Snow
11:15 AM 5.0 °F -15.7 °F -4.0 °F 66% 30.07 in 1.8 mi West 20.7 mph 29.9 mph 0.00 in   Haze
11:30 AM 5.0 °F -12.3 °F -4.0 °F 66% 30.07 in 3.0 mi SW 13.8 mph 27.6 mph 0.00 in   Haze
11:37 AM 6.1 °F -12.8 °F -2.9 °F 67% 30.07 in 3.0 mi WSW 17.3 mph 23.0 mph 0.00 in   Haze
11:41 AM 6.1 °F -14.3 °F -2.9 °F 67% 30.07 in 1.8 mi West 20.7 mph 28.8 mph 0.00 in Snow Light Snow
11:54 AM 5.0 °F -14.7 °F -4.0 °F 66% 30.12 in 1.8 mi WSW 18.4 mph 26.5 mph 0.00 in   Haze
12:01 PM 5.0 °F -15.2 °F -2.9 °F 70% 30.05 in 2.0 mi WSW 19.6 mph 28.8 mph N/A   Haze
12:08 PM 6.1 °F -14.3 °F -2.9 °F 67% 30.05 in 1.2 mi West 20.7 mph 28.8 mph N/A   Haze
12:27 PM 6.1 °F -11.6 °F -2.9 °F 67% 30.04 in 2.5 mi WSW 15.0 mph 26.5 mph N/A   Haze
12:36 PM 6.1 °F -10.9 °F -2.0 °F 69% 30.04 in 1.0 mi WSW 13.8 mph 29.9 mph 0.00 in Snow Light Snow
12:48 PM 6.8 °F -10.0 °F -2.2 °F 67% 30.03 in 3.0 mi WSW 13.8 mph 23.0 mph 0.00 in   Haze
12:49 PM 6.8 °F -12.4 °F -2.2 °F 67% 30.03 in 2.5 mi West 18.4 mph 26.5 mph 0.00 in   Haze
12:54 PM 6.1 °F -13.8 °F -2.0 °F 69% 30.09 in 1.8 mi WSW 19.6 mph 27.6 mph 0.00 in   Haze
1:38 PM 7.0 °F -12.1 °F -2.0 °F 67% 30.00 in 2.0 mi WSW 18.4 mph 29.9 mph 0.00 in   Haze
1:54 PM 6.1 °F -11.6 °F -2.0 °F 69% 30.06 in 1.2 mi WSW 15.0 mph 31.1 mph 0.00 in Snow Light Snow
2:37 PM 7.0 °F -9.8 °F -2.0 °F 67% 29.98 in 1.2 mi WSW 13.8 mph 29.9 mph 0.00 in Snow Light Snow
2:54 PM 6.1 °F -10.9 °F -0.9 °F 73% 30.03 in 1.0 mi West 13.8 mph 29.9 mph 0.00 in Snow Light Snow
3:01 PM 6.1 °F -10.9 °F -0.9 °F 73% 29.97 in 0.8 mi WSW 13.8 mph 23.0 mph 0.00 in Snow Light Snow
3:25 PM 6.1 °F -10.2 °F 1.0 °F 80% 29.96 in 0.2 mi WSW 12.7 mph 24.2 mph 0.00 in Snow Heavy Snow
3:39 PM 6.1 °F -12.8 °F 1.0 °F 80% 29.96 in 0.5 mi WSW 17.3 mph 24.2 mph 0.00 in Snow Snow
3:54 PM 7.0 °F -12.1 °F 1.0 °F 77% 30.02 in 0.5 mi WSW 18.4 mph 27.6 mph 0.00 in Snow Snow
3:59 PM 7.0 °F -11.6 °F -0.0 °F 73% 29.96 in 0.2 mi WSW 17.3 mph 27.6 mph 0.00 in Snow Heavy Snow
4:09 PM 7.0 °F -8.3 °F 1.0 °F 77% 29.96 in 0.5 mi WSW 11.5 mph 20.7 mph 0.00 in Snow Snow
4:22 PM 7.0 °F -10.4 °F 1.0 °F 77% 29.96 in 0.2 mi WSW 15.0 mph 27.6 mph 0.00 in Snow Heavy Snow
4:25 PM 7.0 °F -10.4 °F 1.0 °F 77% 29.96 in 0.5 mi WSW 15.0 mph 26.5 mph 0.00 in Snow Snow
4:35 PM 7.0 °F -9.1 °F 1.0 °F 77% 29.95 in 0.8 mi WSW 12.7 mph 23.0 mph 0.00 in Snow Light Snow
4:54 PM 7.0 °F -8.3 °F -0.0 °F 73% 30.01 in 1.2 mi WSW 11.5 mph 19.6 mph 0.00 in Snow Light Snow
5:08 PM 6.1 °F -8.7 °F -0.0 °F 76% 29.95 in 0.8 mi WSW 10.4 mph 21.9 mph 0.00 in Snow Light Snow
5:54 PM 6.1 °F -10.2 °F 1.0 °F 80% 30.00 in 0.5 mi WSW 12.7 mph 19.6 mph 0.00 in Snow Snow
6:08 PM 6.1 °F -8.7 °F 1.0 °F 80% 29.93 in 1.0 mi WSW 10.4 mph 23.0 mph 0.00 in Snow Light Snow
6:54 PM 7.0 °F -6.6 °F 1.9 °F 80% 29.98 in 1.0 mi WSW 9.2 mph 18.4 mph 0.00 in Snow Light Snow
7:06 PM 7.0 °F -10.4 °F 1.9 °F 80% 29.91 in 0.8 mi SW 15.0 mph 21.9 mph 0.00 in Snow Light Snow
7:19 PM 7.0 °F -10.4 °F 1.9 °F 80% 29.91 in 0.5 mi WSW 15.0 mph 25.3 mph 0.00 in Snow Snow
7:41 PM 7.0 °F -6.6 °F 1.9 °F 80% 29.90 in 1.0 mi WSW 9.2 mph 24.2 mph 0.00 in Snow Light Snow
7:54 PM 7.0 °F -11.0 °F 1.9 °F 80% 29.96 in 1.0 mi WSW 16.1 mph 25.3 mph 0.00 in Snow Light Snow
8:03 PM 7.0 °F -11.6 °F 1.9 °F 80% 29.90 in 0.8 mi WSW 17.3 mph 27.6 mph 0.00 in Snow Light Snow
8:32 PM 7.0 °F -7.5 °F 3.0 °F 84% 29.89 in 0.5 mi WSW 10.4 mph 21.9 mph 0.00 in Fog , Snow Snow
8:54 PM 7.0 °F -9.1 °F 1.9 °F 80% 29.94 in 0.8 mi WSW 12.7 mph 19.6 mph 0.01 in Snow Light Snow
9:01 PM 7.0 °F -10.4 °F 1.9 °F 80% 29.88 in 1.0 mi WSW 15.0 mph 21.9 mph 0.00 in Snow Light Snow
9:12 PM 7.0 °F -11.6 °F 1.9 °F 80% 29.87 in 0.8 mi WSW 17.3 mph 26.5 mph 0.00 in Snow Light Snow
9:43 PM 8.1 °F -7.7 °F 3.0 °F 80% 29.86 in 0.5 mi WSW 12.7 mph 26.5 mph 0.00 in Snow Snow
9:54 PM 8.1 °F -7.0 °F 3.0 °F 80% 29.92 in 0.5 mi WSW 11.5 mph 24.2 mph 0.00 in Snow Snow
10:54 PM 8.1 °F -9.0 °F 3.0 °F 80% 29.90 in 0.8 mi West 15.0 mph 31.1 mph 0.00 in Snow Light Snow
11:06 PM 8.1 °F -8.4 °F 3.0 °F 80% 29.84 in 0.8 mi WSW 13.8 mph 26.5 mph 0.00 in Snow Light Snow
11:13 PM 8.1 °F -7.7 °F 3.9 °F 83% 29.84 in 0.8 mi West 12.7 mph 21.9 mph 0.00 in Snow Light Snow
11:54 PM 8.1 °F -6.2 °F 3.0 °F 80% 29.89 in 0.5 mi WSW 10.4 mph 19.6 mph 0.00 in Snow Snow